Wainwright, AK

5:02 PM AKDT on July 22, 2017 (GMT -0800)
Wainwright

Weather History for PAWI - October, 2012

Change the Weather History Date:

Tuesday, October 16, 2012

  Actual Average (PABR) Record (PABR)
Temperature  
Mean Temperature 27 °F -  
Max Temperature 28 °F 18 °F 38 °F (1984)
Min Temperature 26 °F 10 °F -17 °F (1988)
Degree Days  
Heating Degree Days 38    
Moisture  
Dew Point 19 °F    
Average Humidity 71    
Maximum Humidity 86    
Minimum Humidity 58    
Precipitation  
Precipitation 0.03 in - - ()
Sea Level Pressure  
Sea Level Pressure 29.84 in    
Wind  
Wind Speed 16 mph (NNW)    
Max Wind Speed 22 mph    
Max Gust Speed 23 mph    
Visibility 7 miles    
Events Fog , Snow    
Averages and records for this station are not official NWS values.
T = Trace of Precipitation, MM = Missing Value Source: NWS Daily Summary

Daily Weather History Graph

Daily Weather History Graph

Search for Another Location

Airport or City:

Trip Planner

Search our weather history database for the weather conditions in past years. The results will help you decide how hot, cold, wet, or windy it might be!

Date:

Astronomy

Oct. 16, 2012 Rise Set
Actual Time 10:04 AM AKDT 6:44 PM AKDT
Civil Twilight 8:57 AM AKDT 7:50 PM AKDT
Nautical Twilight 7:45 AM AKDT 9:03 PM AKDT
Astronomical Twilight 6:29 AM AKDT 10:18 PM AKDT
Moon 1:41 PM AKDT (10/16) 5:30 PM AKDT (10/16)
Length of Visible Light 10h 52m
Length of Day
8h 40m
Waxing Crescent, 3% of the Moon is Illuminated
Oct 16
Waxing Crescent
Oct 21
First Quarter
Oct 29
Full
Nov 6
Last Quarter
Nov 13
New

Hourly Weather History & Observations

Time (AKDT) Temp. Windchill Dew Point Humidity Pressure Visibility Wind Dir Wind Speed Gust Speed Precip Events Conditions
12:53 AM 27.0 °F 15.6 °F 18.0 °F 69% 29.69 in 10.0 mi North 13.8 mph - N/A   Clear
1:53 AM 28.9 °F 18.6 °F 18.0 °F 64% 29.70 in 10.0 mi NNW 12.7 mph 16.1 mph 0.00 in   Overcast
2:53 AM 28.0 °F 18.1 °F 17.1 °F 63% 29.72 in 10.0 mi NNW 11.5 mph - 0.00 in   Mostly Cloudy
3:34 AM 26.6 °F 14.7 °F 19.4 °F 74% 29.73 in 10.0 mi NNW 15.0 mph 19.6 mph N/A   Overcast
3:41 AM 28.4 °F 16.6 °F 17.6 °F 64% 29.73 in 10.0 mi NNW 16.1 mph - N/A   Overcast
3:51 AM 28.4 °F 16.2 °F 17.6 °F 64% 29.73 in 10.0 mi NNW 17.3 mph - N/A   Mostly Cloudy
3:53 AM 28.0 °F 16.1 °F 18.0 °F 66% 29.73 in 10.0 mi NNW 16.1 mph - N/A   Mostly Cloudy
4:20 AM 26.6 °F 13.1 °F 21.2 °F 80% 29.74 in 2.0 mi NW 19.6 mph - 0.00 in Snow Light Snow
4:26 AM 26.6 °F 14.7 °F 21.2 °F 80% 29.74 in 1.0 mi NW 15.0 mph - 0.00 in Snow Light Snow
4:50 AM 26.6 °F 15.7 °F 21.2 °F 80% 29.74 in 2.0 mi NNW 12.7 mph 18.4 mph 0.03 in Snow Light Snow
4:51 AM 26.6 °F 14.3 °F 21.2 °F 80% 29.74 in 3.0 mi North 16.1 mph 21.9 mph 0.03 in Snow Light Snow
4:53 AM 27.0 °F 13.9 °F 19.9 °F 75% 29.75 in 7.0 mi NNW 18.4 mph 23.0 mph 0.03 in Snow Light Snow
5:01 AM 28.4 °F 15.8 °F 19.4 °F 69% 29.74 in 9.0 mi NNW 18.4 mph - 0.00 in   Overcast
5:17 AM 28.4 °F 16.2 °F 17.6 °F 64% 29.74 in 10.0 mi NNW 17.3 mph - 0.00 in   Mostly Cloudy
5:53 AM 28.0 °F 17.0 °F 19.0 °F 69% 29.76 in 10.0 mi North 13.8 mph - 0.00 in   Overcast
6:53 AM 28.0 °F 15.7 °F 18.0 °F 66% 29.78 in 10.0 mi NNW 17.3 mph - N/A   Overcast
7:53 AM 28.0 °F 16.1 °F 16.0 °F 61% 29.79 in 10.0 mi NNW 16.1 mph - N/A   Overcast
8:53 AM 28.9 °F 15.4 °F 17.1 °F 61% 29.80 in 10.0 mi NNW 21.9 mph - N/A   Overcast
9:53 AM 28.9 °F 16.9 °F 17.1 °F 61% 29.82 in 10.0 mi NNW 17.3 mph - N/A   Overcast
10:53 AM 28.0 °F 15.3 °F 18.0 °F 66% 29.83 in 10.0 mi NNW 18.4 mph - N/A   Mostly Cloudy
11:53 AM 27.0 °F 13.9 °F 21.9 °F 81% 29.85 in 5.0 mi NNW 18.4 mph - 0.00 in Snow Light Snow
11:55 AM 26.6 °F 13.8 °F 21.2 °F 80% 29.85 in 4.0 mi NNW 17.3 mph - 0.00 in Snow Light Snow
12:04 PM 26.6 °F 14.3 °F 21.2 °F 80% 29.85 in 6.0 mi NNW 16.1 mph - 0.00 in Snow Light Snow
12:34 PM 28.4 °F 17.5 °F 21.2 °F 74% 29.86 in 10.0 mi NNW 13.8 mph - 0.00 in   Mostly Cloudy
12:53 PM 28.0 °F 15.7 °F 21.0 °F 75% 29.87 in 10.0 mi NNW 17.3 mph - 0.00 in   Overcast
1:17 PM 26.6 °F 13.8 °F 21.2 °F 80% 29.87 in 2.5 mi NNW 17.3 mph - 0.00 in Snow Light Snow
1:19 PM 26.6 °F 13.8 °F 21.2 °F 80% 29.87 in 0.8 mi NNW 17.3 mph - 0.00 in Snow Light Snow
1:22 PM 26.6 °F 14.7 °F 23.0 °F 86% 29.88 in 0.2 mi NNW 15.0 mph - 0.00 in Fog , Snow Heavy Snow
1:33 PM 26.6 °F 15.2 °F 23.0 °F 86% 29.88 in 0.2 mi WNW 13.8 mph - 0.00 in Fog , Snow Snow
1:39 PM 26.6 °F 13.8 °F 23.0 °F 86% 29.87 in 1.0 mi NW 17.3 mph - 0.00 in Snow Light Snow
1:46 PM 28.4 °F 16.2 °F 21.2 °F 74% 29.88 in 3.0 mi NW 17.3 mph - 0.00 in Snow Light Snow
1:53 PM 28.0 °F 17.0 °F 21.0 °F 75% 29.89 in 9.0 mi North 13.8 mph - 0.00 in   Overcast
2:06 PM 28.4 °F 16.6 °F 21.2 °F 74% 29.88 in 10.0 mi North 16.1 mph - N/A   Overcast
2:49 PM 26.6 °F 13.1 °F 21.2 °F 80% 29.89 in 1.8 mi NNW 19.6 mph - 0.00 in Snow Light Snow
2:53 PM 27.0 °F 14.7 °F 21.9 °F 81% 29.90 in 1.2 mi NNW 16.1 mph - 0.00 in Snow Light Snow
3:00 PM 26.6 °F 14.3 °F 21.2 °F 80% 29.89 in 1.2 mi NNW 16.1 mph - 0.00 in Snow Light Snow
3:04 PM 28.4 °F 15.8 °F 19.4 °F 69% 29.90 in 2.5 mi NNW 18.4 mph - 0.00 in Snow Light Snow
3:08 PM 28.4 °F 16.6 °F 19.4 °F 69% 29.90 in 5.0 mi NNW 16.1 mph - 0.00 in Snow Light Snow
3:28 PM 28.4 °F 17.5 °F 17.6 °F 64% 29.90 in 10.0 mi North 13.8 mph 23.0 mph 0.00 in   Overcast
3:53 PM 28.9 °F 17.7 °F 17.1 °F 61% 29.91 in 10.0 mi North 15.0 mph 21.9 mph 0.00 in   Overcast
4:53 PM 28.0 °F 16.5 °F 16.0 °F 61% 29.92 in 10.0 mi North 15.0 mph - N/A   Mostly Cloudy
5:53 PM 28.0 °F 16.1 °F 15.1 °F 58% 29.94 in 10.0 mi North 16.1 mph - N/A   Overcast
6:53 PM 28.0 °F 15.3 °F 15.1 °F 58% 29.95 in 10.0 mi NNW 18.4 mph - N/A   Overcast
7:53 PM 28.0 °F 15.7 °F 15.1 °F 58% 29.97 in 10.0 mi NNW 17.3 mph - N/A   Overcast
8:53 PM 28.0 °F 16.1 °F 15.1 °F 58% 29.97 in 10.0 mi NNW 16.1 mph - N/A   Mostly Cloudy
9:53 PM 28.0 °F 17.0 °F 16.0 °F 61% 29.99 in 10.0 mi NNW 13.8 mph - N/A   Mostly Cloudy
10:53 PM 28.0 °F 15.3 °F 18.0 °F 66% 29.99 in 10.0 mi NNW 18.4 mph - N/A   Overcast
11:53 PM 28.9 °F 16.9 °F 18.0 °F 64% 30.00 in 10.0 mi NNW 17.3 mph - N/A   Overcast